Location: T�bingen+AIT
(48.5342°N, 9.0700°E)
Time: 20:24:47
(UTC+02:00)

Cosmos 1898 Rocket - Pass Details

Date: 14 September 2017
Orbit: 754 x 784 km, 74.0° (Epoch: 19 September)

Event Time Altitude Azimuth Distance (km) Brightness Sun altitude
Rises 20:52:49 0° 338° (NNW) 3,240 7.4 -12.8°
Reaches altitude 10° 20:55:13 10° 340° (NNW) 2,305 6.6 -13.2°
Maximum altitude 21:00:27 72° 65° (ENE) 801 3.4 -14.0°
Enters shadow 21:04:38 16° 148° (SSE) 1,912 5.1 -14.7°
